Starlink 6216

operational
NORAD ID: 56893 Int'l Des: 2023-083 Owner: SPXS Country: US Constellation: starlink
LEOCIRCULAR

Starlink 6216について

説明を読み込み中...

リアルタイム位置

3D地球を読み込み中...

次回通過

高度履歴

Altitude vs Time

uPlot chart will show altitude changes over time

軌道要素

1 56893U 23083T 25351.20494656 .00002861 00000-0 22663-3 0 9998
2 56893 43.0030 169.8827 0001361 273.0812 86.9874 15.02557775139388
Epoch: Dec 17, 2025 • Age: 10 hours

現在のステータス

高度 561.6 km
速度 7.59 km/s
衛星直下点 36.57°N, 16.49°W
打ち上げ日 Jun 12, 2023
運用期間 2.5 years
タイプ internet

技術仕様

分類 Payload
質量 305.00 kg
乾燥質量 290.00 kg
総質量 305.00 kg
長さ 0.20 m
直径 2.80 m
スパン 9.00 m
形状 Box + pan
製造者 SPXS
バスタイプ Starlink
フェーズステータス In Orbit
所有者/国 SPXS/US

大規模コンステレーション

Loading constellations...